Milton, FL

3:14 PM CST on December 09, 2016 (GMT -0600)
Whiting Field Naval Air Station (South)

Weather History for KNDZ - May, 2014

Change the Weather History Date:

Sunday, May 11, 2014

  Actual Average (KNSE) Record (KNSE)
Temperature  
Mean Temperature 80 °F -  
Max Temperature 87 °F 82 °F 93 °F (2011)
Min Temperature 73 °F 61 °F 48 °F (1997)
Cooling Degree Days 14    
Growing Degree Days 30 (Base 50)    
Moisture  
Dew Point 71 °F    
Average Humidity 82    
Maximum Humidity 94    
Minimum Humidity 53    
Precipitation  
Precipitation 0.00 in - - ()
Sea Level Pressure  
Sea Level Pressure 30.05 in    
Wind  
Wind Speed 7 mph (SE)    
Max Wind Speed 16 mph    
Max Gust Speed 22 mph    
Visibility 6 miles    
Events Fog , Rain    
Averages and records for this station are not official NWS values.
T = Trace of Precipitation, MM = Missing Value Source: NWS Daily Summary

Daily Weather History Graph

Daily Weather History Graph

Search for Another Location

Airport or City:

Trip Planner

Search our weather history database for the weather conditions in past years. The results will help you decide how hot, cold, wet, or windy it might be!

Date:

Astronomy

May. 11, 2014 Rise Set
Actual Time 5:56 AM CDT 7:33 PM CDT
Civil Twilight 5:29 AM CDT 7:59 PM CDT
Nautical Twilight 4:58 AM CDT 8:30 PM CDT
Astronomical Twilight 4:25 AM CDT 9:04 PM CDT
Moon 4:40 PM CDT (5/11) 3:46 AM CDT (5/11)
Length of Visible Light 14h 29m
Length of Day
13h 37m
Waxing Gibbous, 89% of the Moon is Illuminated
May 11
Waxing Gibbous
May 14
Full
May 21
Last Quarter
May 28
New
Jun 5
First Quarter

Hourly Weather History & Observations

Time (CDT) Temp. Heat Index Dew Point Humidity Pressure Visibility Wind Dir Wind Speed Gust Speed Precip Events Conditions
12:07 AM 73.9 °F - 72.0 °F 93% 30.05 in 4.0 mi SE 6.9 mph - N/A   Mostly Cloudy
12:56 AM 75.0 °F - 72.0 °F 90% 30.01 in 4.0 mi SE 8.1 mph - N/A   Overcast
1:51 AM 75.2 °F - 71.6 °F 89% 30.04 in 4.0 mi SE 5.8 mph - N/A   Overcast
1:56 AM 75.0 °F - 72.0 °F 90% 30.00 in 4.0 mi SE 6.9 mph - N/A   Overcast
2:56 AM 75.0 °F - 72.0 °F 90% 29.99 in 4.0 mi SE 4.6 mph - N/A   Overcast
3:10 AM 75.0 °F - 72.0 °F 90% 30.04 in 4.0 mi SE 5.8 mph - N/A   Overcast
3:56 AM 75.0 °F - 72.0 °F 90% 30.00 in 4.0 mi SE 3.5 mph - N/A   Overcast
4:45 AM 73.9 °F - 71.1 °F 91% 30.04 in 4.0 mi SE 4.6 mph - N/A   Overcast
4:56 AM 73.9 °F - 71.1 °F 91% 30.00 in 4.0 mi SE 5.8 mph - N/A   Overcast
5:04 AM 73.9 °F - 71.1 °F 91% 30.04 in 3.0 mi SE 5.8 mph - N/A   Mostly Cloudy
5:17 AM 73.9 °F - 71.1 °F 91% 30.04 in 3.0 mi ESE 4.6 mph - N/A   Mostly Cloudy
5:56 AM 73.9 °F - 71.1 °F 91% 30.00 in 3.0 mi ESE 4.6 mph - N/A   Overcast
6:07 AM 73.9 °F - 71.1 °F 91% 30.05 in 2.0 mi ESE 4.6 mph - N/A   Overcast
6:25 AM 73.9 °F - 71.1 °F 91% 30.06 in 1.5 mi East 3.5 mph - N/A   Overcast
6:57 AM 73.4 °F - 71.6 °F 94% 30.07 in 0.5 mi East 5.8 mph - N/A Fog Fog
7:03 AM 73.9 °F - 71.1 °F 91% 30.03 in 0.2 mi ESE 4.6 mph - N/A Fog Fog
7:16 AM 73.9 °F - 71.1 °F 91% 30.08 in 2.0 mi ESE 6.9 mph - N/A   Overcast
7:25 AM 73.9 °F - 72.0 °F 93% 30.08 in 3.0 mi ESE 5.8 mph - N/A   Overcast
7:56 AM 75.9 °F - 72.0 °F 87% 30.05 in 5.0 mi SSE 4.6 mph - N/A   Overcast
8:35 AM 77.0 °F - 73.0 °F 88% 30.11 in 8.0 mi SE 5.8 mph - N/A   Overcast
8:56 AM 80.1 °F 84.2 °F 73.0 °F 79% 30.07 in 10.0 mi SSE 11.5 mph - N/A   Mostly Cloudy
9:03 AM 79.0 °F - 72.0 °F 79% 30.11 in 10.0 mi SSE 12.7 mph - N/A   Mostly Cloudy
9:56 AM 82.0 °F 86.3 °F 71.1 °F 69% 30.08 in 10.0 mi SE 11.5 mph - N/A   Scattered Clouds
10:56 AM 84.0 °F 88.4 °F 70.0 °F 63% 30.07 in 10.0 mi SSE 10.4 mph - N/A   Scattered Clouds
11:20 AM 82.9 °F 87.0 °F 70.0 °F 65% 30.12 in 10.0 mi SSE 11.5 mph - N/A   Mostly Cloudy
11:36 AM 82.0 °F 86.3 °F 71.1 °F 69% 30.11 in 10.0 mi SSE 9.2 mph - 0.00 in Rain Light Rain
11:56 AM 84.9 °F 88.8 °F 69.1 °F 59% 30.06 in 10.0 mi SSE 16.1 mph 21.9 mph 0.00 in   Scattered Clouds
12:56 PM 84.9 °F 88.8 °F 69.1 °F 59% 30.05 in 10.0 mi South 15.0 mph 21.9 mph N/A   Partly Cloudy
1:56 PM 86.0 °F 88.8 °F 66.9 °F 53% 30.04 in 10.0 mi SSE 16.1 mph - N/A   Scattered Clouds
2:56 PM 84.9 °F 87.1 °F 66.0 °F 53% 30.02 in 10.0 mi SSE 13.8 mph - N/A   Partly Cloudy
3:56 PM 84.9 °F 87.6 °F 66.9 °F 55% 30.00 in 10.0 mi South 11.5 mph - N/A   Scattered Clouds
4:56 PM 84.0 °F 86.5 °F 66.9 °F 56% 30.00 in 10.0 mi SSE 10.4 mph - N/A   Mostly Cloudy
5:56 PM 81.0 °F 84.1 °F 69.1 °F 67% 30.02 in 10.0 mi South 8.1 mph - N/A   Mostly Cloudy
6:56 PM 80.1 °F 83.2 °F 70.0 °F 71% 30.01 in 10.0 mi South 6.9 mph - N/A   Mostly Cloudy
7:56 PM 75.9 °F - 70.0 °F 82% 30.02 in 10.0 mi South 6.9 mph - N/A   Mostly Cloudy
8:56 PM 75.0 °F - 71.1 °F 87% 30.04 in 10.0 mi SE 5.8 mph - N/A   Mostly Cloudy
9:56 PM 73.9 °F - 71.1 °F 91% 30.05 in 7.0 mi SE 6.9 mph - N/A   Mostly Cloudy
10:56 PM 73.0 °F - 70.0 °F 90% 30.04 in 5.0 mi SSE 6.9 mph - N/A   Partly Cloudy
11:05 PM 73.0 °F - 70.0 °F 90% 30.08 in 5.0 mi SSE 6.9 mph - N/A   Mostly Cloudy
11:19 PM 73.0 °F - 71.1 °F 93% 30.08 in 5.0 mi SE 8.1 mph - N/A   Mostly Cloudy
11:32 PM 73.9 °F - 71.1 °F 91% 30.08 in 5.0 mi SSE 10.4 mph - N/A   Overcast
11:56 PM 73.9 °F - 71.1 °F 91% 30.04 in 5.0 mi SSE 9.2 mph - N/A   Overcast